Regional Weather Roundup
Issued by NWS Goodland, KS

Home | Current Version | Previous Version | Graphics & Text | Print | Product List | Glossary On
Versions: 1 2 3 4 5 6 7 8 9 10 11 12 13 14 15 16 17 18 19 20 21 22 23 24 25 26 27 28 29 30 31 32 33 34 35 36 37 38 39 40 41 42 43 44 45 46 47 48 49 50
000
ASUS43 KGLD 040208
RWRGLD

GOODLAND FORECAST AREA HOURLY WEATHER ROUNDUP
NATIONAL WEATHER SERVICE GOODLAND KS
800 PM MDT FRI JUL 03 2015

...OFFICIAL OBSERVATIONS...

CITY           SKY/WX    TMP DP  RH WIND       PRES   REMARKS
GOODLAND KS    MOCLDY    77  58  51 SE10      30.01R
HILL CITY KS   CLEAR     77  57  50 E6        29.98R
IMPERIAL NEB   CLEAR     75  58  55 E7        30.00R
MCCOOK NEB     CLEAR     75  62  64 SE10      29.99R
AKRON CO       MOCLDY    75  61  61 SE8       30.06R
BURLINGTON CO  MOCLDY    76  58  53 E8        30.04R
LIMON CO       CLEAR     73  59  61 SE5       30.11R
$$

...UNOFFICIAL OBSERVATIONS...

CITY           SKY/WX    TMP DP  RH WIND       PRES   REMARKS
COLBY KS       CLEAR     77  61  57 E10       30.02S
GOVE KS          N/A     75  32  20 MISG        N/A
NORTON KS      CLEAR     73  55  53 NE6       29.99R
SHARON SPRINGS   N/A     78  60  54 SE14        N/A
YUMA CO          N/A     78  59  51 SE5         N/A
$$


USA.gov is the U.S. government's official web portal to all federal, state and local government web resources and services.